Flight Information

DEPARTURE
SAN DIEGO, CA
Elevation:
526
Runways:
8L/26R - 7972x150 - ASPH-CONC-G
8R/26L - 3185x75 - ASPH-G
Active PE Departure:
26L - 26R
Current PE ATIS:
G
Altimeter:
30.12
Remarks:
ATIS:
132.35 619-661-0152
Clearance Delivery:
124.4
Ground:
124.4
Tower:
128.25
DESTINATION
,
Elevation:
TPA:
1000 (est.)


6748.4 NM75° True-13° Var61° HDG

Flight Plan:
(click to file on line)

1. Type
2. Aircraft Identification
3. Aircraft Type / Special Equipment
4. True Airspeed
kts
5. Departure Airport
(ICAO code)
6. Arriving Airport
(ICAO code)
7. Cruising Altitude
ft
8. Alternate Airport
(ICAO code)
9. Route of Flight
10. Remarks


00:00:00 Departure ATIS: Destination ATIS:

Clearance Limit:
Route:
Altitude: Expect in minutes
Frequency:
Transponder: (7500 Hijack / 7600 Lost Comms / 7700 Emergency)


KSDM 100553Z AUTO 11003KT 10SM CLR 06/04 A3012 RMK AO2 SLP201 T00610044 10139 20061 52007
Time: 2022-12-10T05:53:00Z
1670654263
Winds: 110 @ 3 kts
Visibility: 10.0 sm
Clouds (AGL): CLR
Temperature: 6.1 C
Dew Point: 4.4 C
Pressure: 30.121063 in Hgbr


Notes:

Data extracted from FAA Digital Chart Supplement. Effective: 0901Z Thursday, 27 JAN 2022 to 0900z Thursday, 24 MAR 2022
Current ATIS data is provided courtisy of PilotEdge.